Flag for Brazil Weather past 2 weeks in Manaus, Amazonas, Brazil

Now
77 °F

Rain. Passing clouds.


Feels Like: 78 °F
Forecast: 77 / 94 °F
Wind: 12 mph from East

Location: Manaus Aeroporto

Current Time: Aug 29, 2015 at 6:16:15 AM

Latest Report: Aug 29, 2015 at 5:00 AM


Visibility: N/A

Pressure: 29.89 "Hg

Humidity: 83%

Dew point: 72 °F

Location of ManausLocation

Historic Weather in Manaus — Graph

°F

Manaus temperature yesterday

Maximum temperature yesterday: 93 °F (at 1:00 PM)
Minimum temperature yesterday: 81 °F (at 3:00 AM)
Average temperature yesterday: 87 °F

Past Weeks' High & Low Weather Summary

 TemperatureHumidityPressure
High95 °F (Aug 23, 2:00 PM)89% (Aug 15, 3:00 AM)29.95 "Hg (Aug 15, 3:00 AM)
Low77 °F (Aug 14, 6:00 AM)44% (Aug 16, 3:00 PM)29.71 "Hg (Aug 25, 5:00 PM)
Average85 °F66%29.86 "Hg
* Reported Aug 14 5:00 AM — Aug 29 5:00 AM, Manaus, Weather by CustomWeather, © 2015

Note: Actual official high and low records may vary slightly from our data, if they occured in-between our weather recording intervals... More about our weather records

Advertising

Manaus weather history for previous 24 hours

 ConditionsComfort  
Time TempWeatherWind HumidityBarometerVisibility
5:00 AM
Sat, Aug 29
77 °FRain. Passing clouds.12 mph83%29.89 "HgN/A
4:00 AM79 °FClear.2 mph89%29.86 "Hg10 mi
3:00 AM82 °FClear.1 mph70%29.86 "Hg10 mi
2:00 AM82 °FClear.2 mph70%29.89 "Hg10 mi
1:00 AM82 °FClear.2 mph74%29.89 "Hg10 mi
12:00 AM82 °FClear.3 mph74%29.89 "Hg10 mi
11:00 PM
Fri, Aug 28
84 °FClear.5 mph74%29.89 "Hg10 mi
10:00 PM86 °FClear.5 mph66%29.89 "Hg10 mi
9:00 PM86 °FClear.5 mph62%29.86 "Hg10 mi
8:00 PM86 °FClear.3 mph66%29.86 "Hg10 mi
7:00 PM86 °FPassing clouds.No wind66%29.83 "HgN/A
6:00 PM88 °FPassing clouds.5 mph55%29.80 "HgN/A
5:00 PM91 °FPassing clouds.5 mph49%29.80 "HgN/A
4:00 PM93 °FPassing clouds.7 mph47%29.83 "HgN/A
3:00 PM93 °FPassing clouds.6 mph47%29.83 "HgN/A
2:00 PM93 °FPassing clouds.8 mph47%29.86 "HgN/A
1:00 PM93 °FPassing clouds.7 mph44%29.89 "HgN/A
12:00 PM91 °FPassing clouds.9 mph49%29.92 "HgN/A
11:00 AM91 °FPassing clouds.5 mph49%29.95 "HgN/A
10:00 AM90 °FPassing clouds.7 mph55%29.95 "HgN/A
9:00 AM88 °FPassing clouds.5 mph62%29.95 "HgN/A
8:00 AM88 °FPassing clouds.3 mph62%29.95 "HgN/A
7:00 AM82 °FSunny.2 mph74%29.92 "Hg10 mi
6:00 AM81 °FSunny.No wind74%29.92 "Hg10 mi
Weather by CustomWeather, © 2015

See weather overviewHow to use our weather pages